Погода в Ахсарисаре

Россия / Республика Северная Осетия — Алания     43°08′09″N   43°49′06″E
темп.,
°C
ветер,
м/с
пор.,
м/с
влажн.,
%
обл.,
%
осадки,
мм/ч
давл.,
гПа
погр.,
м
24 мая, вт
вт2400:00+8зюз1296100 1.6 100871
03:00+8зюз1296100 3.3 100984
06:00+7зюз2496100 3.8 1010234
09:00+8зюз2394100 7.3 1011223
12:00+10зюз2178100 0.8 1011647
15:00+10з128495 1.4 1011338
18:00+9ссв2496100 0.6 1013250
21:00+8юз1296100 1.4 101568
25 мая, ср
ср2500:00+7зюз2494100 1.0 1016135
03:00+6з1496100 2.6 1018196
06:00+6ююз2396100 3.8 1019150
09:00+7ююз3495100 8.4 1021199
12:00+12вюв116980 0.8 1019930
15:00+13ссв337155 1.6 10191060
18:00+11ссз118863 2.7 1021151
21:00+8юз229279 3.6 102334
26 мая, чт
чт2600:00+7юз238987 0.0 102343
03:00+6юз348657 0.0 102354
06:00+8юз237757 0.0 102368
09:00+13св226243 0.0 1022904
12:00+14всв326194 0.1 10211377
15:00+16всв335998 0.3 10201405
18:00+14всв237685 0.0 1020212
21:00+11ююз118261 0.1 102115
27 мая, пт
пт2700:00+9юз33717 0.0 102145
03:00+8юз345867 0.0 102150
06:00+10юз33504 0.0 102154
09:00+17всв21460 0.0 1019812
12:00+19св42470 0.0 10181479
15:00+20всв435010 0.0 10181416
18:00+17всв236911 0.0 1018367
21:00+13юз228197 0.1 102036
28 мая, сб
сб2800:00+12юз227260 0.0 101928
03:00+11юз226455 0.0 101932
06:00+12юз22675 0.0 101849
09:00+18всв33552 0.0 1016903
12:00+20всв43527 0.0 10151286
15:00+21всв325448 0.0 10141419
18:00+19св227016 0.0 1014493
21:00+14зюз22874 0.0 101624